Dyersburg, TN

6:13 AM CDT on July 26, 2017 (GMT -0500)
Dyersburg Municipal

Weather History for KDYR - June, 2012

Change the Weather History Date:

Saturday, June 23, 2012

  Actual Average Record
Temperature  
Mean Temperature 82 °F -  
Max Temperature 91 °F 84 °F 96 °F (2007)
Min Temperature 73 °F 66 °F 60 °F (2001)
Cooling Degree Days 17    
Growing Degree Days 32 (Base 50)    
Moisture  
Dew Point 57 °F    
Average Humidity 37    
Maximum Humidity 61    
Minimum Humidity 29    
Precipitation  
Precipitation 0.00 in - - ()
Sea Level Pressure  
Sea Level Pressure 29.96 in    
Wind  
Wind Speed 4 mph (NE)    
Max Wind Speed 10 mph    
Max Gust Speed -    
Visibility 10 miles    
Events      
Averages and records for this station are not official NWS values.
T = Trace of Precipitation, MM = Missing Value Source: NWS Daily Summary

Daily Weather History Graph

Daily Weather History Graph

Search for Another Location

Airport or City:

Trip Planner

Search our weather history database for the weather conditions in past years. The results will help you decide how hot, cold, wet, or windy it might be!

Date:

Astronomy

Jun. 23, 2012 Rise Set
Actual Time 5:41 AM CDT 8:18 PM CDT
Civil Twilight 5:11 AM CDT 8:48 PM CDT
Nautical Twilight 4:33 AM CDT 9:25 PM CDT
Astronomical Twilight 3:52 AM CDT 10:07 PM CDT
Moon 9:36 AM CDT (6/23) 10:55 PM CDT (6/23)
Length of Visible Light 15h 36m
Length of Day
14h 36m
Waxing Crescent, 16% of the Moon is Illuminated
Jun 23
Waxing Crescent
Jun 26
First Quarter
Jul 3
Full
Jul 10
Last Quarter
Jul 18
New

Hourly Weather History & Observations

Time (CDT) Temp. Heat Index Dew Point Humidity Pressure Visibility Wind Dir Wind Speed Gust Speed Precip Events Conditions
12:15 AM - - - N/A% 29.95 in 10.0 mi Calm Calm - N/A   Clear
12:35 AM - - - N/A% 29.95 in 10.0 mi NE 3.5 mph - N/A   Clear
12:55 AM - - - N/A% 29.95 in 10.0 mi NE 4.6 mph - N/A   Clear
1:15 AM - - - N/A% 29.95 in 10.0 mi NE 4.6 mph - N/A   Clear
1:35 AM - - - N/A% 29.95 in 10.0 mi NE 6.9 mph - N/A   Clear
1:55 AM - - - N/A% 29.95 in 10.0 mi NE 5.8 mph - N/A   Clear
2:15 AM - - - N/A% 29.94 in 10.0 mi NE 6.9 mph - N/A   Clear
2:35 AM - - - N/A% 29.95 in 10.0 mi NE 4.6 mph - N/A   Clear
2:55 AM - - - N/A% 29.95 in 10.0 mi NE 4.6 mph - N/A   Clear
3:15 AM - - - N/A% 29.94 in 10.0 mi NE 5.8 mph - N/A   Clear
3:35 AM - - - N/A% 29.94 in 10.0 mi NE 4.6 mph - N/A   Clear
3:55 AM - - - N/A% 29.94 in 10.0 mi NE 4.6 mph - N/A   Clear
4:15 AM - - - N/A% 29.94 in 10.0 mi NE 4.6 mph - N/A   Clear
4:35 AM - - - N/A% 29.95 in 10.0 mi NE 5.8 mph - N/A   Clear
4:55 AM - - - N/A% 29.96 in 10.0 mi NE 5.8 mph - N/A   Clear
5:15 AM - - - N/A% 29.96 in 10.0 mi NE 4.6 mph - N/A   Clear
5:35 AM - - - N/A% 29.96 in 10.0 mi ENE 3.5 mph - N/A   Clear
5:55 AM - - - N/A% 29.95 in 10.0 mi East 5.8 mph - N/A   Clear
6:15 AM - - - N/A% 29.96 in 10.0 mi ENE 5.8 mph - N/A   Clear
6:35 AM - - - N/A% 29.96 in 10.0 mi ENE 4.6 mph - N/A   Clear
6:55 AM - - - N/A% 29.97 in 10.0 mi ENE 4.6 mph - N/A   Clear
7:15 AM - - - N/A% 29.98 in 10.0 mi NE 4.6 mph - N/A   Clear
7:35 AM - - - N/A% 29.99 in 7.0 mi East 3.5 mph - N/A   Clear
7:55 AM - - - N/A% 29.99 in 10.0 mi ENE 3.5 mph - N/A   Clear
8:15 AM - - - N/A% 30.00 in 10.0 mi NE 5.8 mph - N/A   Clear
8:55 AM - - - N/A% 30.00 in 10.0 mi ENE 3.5 mph - N/A   Clear
9:15 AM - - - N/A% 30.00 in 9.0 mi ENE 4.6 mph - N/A   Clear
9:35 AM 80.6 °F 81.1 °F 59.0 °F 48% 30.00 in 8.0 mi East 4.6 mph - N/A   Clear
9:55 AM 80.6 °F 81.1 °F 59.0 °F 48% 29.99 in 8.0 mi East 3.5 mph - N/A   Clear
10:15 AM 82.4 °F 82.5 °F 59.0 °F 45% 30.00 in 10.0 mi NE 4.6 mph - N/A   Clear
10:35 AM 84.2 °F 83.8 °F 59.0 °F 42% 30.00 in 10.0 mi NE 4.6 mph - N/A   Clear
10:55 AM - - - N/A% 29.99 in 10.0 mi ENE 4.6 mph - N/A   Clear
11:15 AM 86.0 °F 86.1 °F 60.8 °F 43% 29.99 in 10.0 mi ENE 3.5 mph - N/A   Clear
11:35 AM 87.8 °F 86.5 °F 57.2 °F 35% 29.99 in 10.0 mi East 3.5 mph - N/A   Clear
11:55 AM 89.6 °F 88.1 °F 57.2 °F 33% 30.00 in 9.0 mi NNE 4.6 mph - N/A   Clear
12:15 PM 89.6 °F 87.7 °F 55.4 °F 31% 30.00 in 10.0 mi ENE 9.2 mph - N/A   Clear
12:35 PM 89.6 °F 87.7 °F 55.4 °F 31% 29.99 in 10.0 mi ENE 9.2 mph - N/A   Clear
12:55 PM 89.6 °F 87.7 °F 55.4 °F 31% 29.99 in 10.0 mi NNE 8.1 mph - N/A   Clear
1:15 PM 91.4 °F 89.9 °F 57.2 °F 31% 29.99 in 10.0 mi ENE 6.9 mph - N/A   Clear
1:35 PM 89.6 °F 87.7 °F 55.4 °F 31% 29.98 in 10.0 mi NNE 5.8 mph - N/A   Clear
1:55 PM 91.4 °F 89.4 °F 55.4 °F 29% 29.98 in 10.0 mi East 4.6 mph - N/A   Clear
2:15 PM 91.4 °F 89.4 °F 55.4 °F 29% 29.98 in 10.0 mi NNE 8.1 mph - N/A   Clear
2:35 PM 91.4 °F 89.4 °F 55.4 °F 29% 29.97 in 10.0 mi NNE 8.1 mph - N/A   Clear
2:55 PM 91.4 °F 89.4 °F 55.4 °F 29% 29.97 in 10.0 mi ENE 10.4 mph - N/A   Clear
3:15 PM 91.4 °F 89.4 °F 55.4 °F 29% 29.96 in 10.0 mi ENE 4.6 mph - N/A   Clear
3:35 PM 91.4 °F 89.4 °F 55.4 °F 29% 29.96 in 10.0 mi East 9.2 mph - N/A   Clear
3:55 PM 91.4 °F 89.4 °F 55.4 °F 29% 29.96 in 10.0 mi NNE 8.1 mph - N/A   Clear
4:15 PM 91.4 °F 89.4 °F 55.4 °F 29% 29.96 in 10.0 mi NNE 3.5 mph - N/A   Clear
4:35 PM 91.4 °F 89.4 °F 55.4 °F 29% 29.95 in 10.0 mi NNE 6.9 mph - N/A   Clear
4:55 PM 91.4 °F 89.4 °F 55.4 °F 29% 29.95 in 10.0 mi NE 6.9 mph - N/A   Clear
5:15 PM 89.6 °F 87.7 °F 55.4 °F 31% 29.94 in 10.0 mi NE 6.9 mph - N/A   Clear
5:35 PM 91.4 °F 89.4 °F 55.4 °F 29% 29.93 in 9.0 mi ENE 3.5 mph - N/A   Clear
5:55 PM 89.6 °F 87.7 °F 55.4 °F 31% 29.92 in 10.0 mi NE 4.6 mph - N/A   Clear
6:15 PM 89.6 °F 87.7 °F 55.4 °F 31% 29.92 in 10.0 mi East 3.5 mph - N/A   Clear
6:35 PM 89.6 °F 87.7 °F 55.4 °F 31% 29.92 in 9.0 mi NE 3.5 mph - N/A   Clear
6:55 PM 89.6 °F 87.7 °F 55.4 °F 31% 29.93 in 10.0 mi NE 4.6 mph - N/A   Clear
7:15 PM 89.6 °F 87.7 °F 55.4 °F 31% 29.93 in 10.0 mi NNE 3.5 mph - N/A   Clear
7:35 PM 87.8 °F 87.6 °F 60.8 °F 40% 29.93 in 10.0 mi Calm Calm - N/A   Clear
7:55 PM 84.2 °F 84.4 °F 60.8 °F 45% 29.94 in 10.0 mi Calm Calm - N/A   Clear
8:15 PM 82.4 °F 82.9 °F 60.8 °F 48% 29.94 in 10.0 mi North 3.5 mph - N/A   Clear
8:35 PM 82.4 °F 82.0 °F 57.2 °F 42% 29.94 in 10.0 mi North 5.8 mph - N/A   Clear
8:55 PM 80.6 °F 80.8 °F 57.2 °F 45% 29.95 in 10.0 mi North 3.5 mph - N/A   Clear
9:15 PM 78.8 °F - 57.2 °F 47% 29.95 in 10.0 mi Calm Calm - N/A   Clear
9:35 PM 77.0 °F - 57.2 °F 50% 29.96 in 10.0 mi Calm Calm - N/A   Clear
9:55 PM 75.2 °F - 57.2 °F 53% 29.97 in 10.0 mi Calm Calm - N/A   Clear
10:15 PM 75.2 °F - 57.2 °F 53% 29.98 in 10.0 mi Calm Calm - N/A   Clear
10:35 PM 73.4 °F - 57.2 °F 57% 29.98 in 10.0 mi Calm Calm - N/A   Clear
10:55 PM 73.4 °F - 59.0 °F 61% 29.98 in 10.0 mi Calm Calm - N/A   Clear
11:15 PM - - - N/A% 29.97 in 10.0 mi Calm Calm - N/A   Clear
11:35 PM - - - N/A% 29.97 in 10.0 mi Calm Calm - N/A   Clear
11:55 PM - - - N/A% 29.98 in 10.0 mi Calm Calm - N/A   Clear